timestamp,wind_dir_avg,wind_spd_avg,wind_spd_max_dir,wind_spd_gust,battery_voltage,lat,long
2022-05-30 00:04:00+00:00,224.0,5.81,223.0,6.21,13.13,47.59359,-54.27349
2022-05-30 00:14:01+00:00,228.0,5.01,227.0,5.38,12.49,47.59359,-54.27349
2022-05-30 00:24:01+00:00,222.0,5.38,219.0,5.75,12.49,47.59359,-54.27349
2022-05-30 00:34:01+00:00,220.0,5.01,227.0,5.74,12.49,47.59359,-54.27349
2022-05-30 00:44:01+00:00,222.0,4.87,223.0,5.08,12.49,47.59359,-54.27349
2022-05-30 00:54:01+00:00,188.0,1.28,201.0,2.22,12.49,47.59359,-54.27349
2022-05-30 01:04:01+00:00,214.0,3.79,218.0,4.13,12.49,47.59359,-54.27349
2022-05-30 01:14:01+00:00,217.0,2.78,217.0,3.11,12.41,47.59359,-54.27349
2022-05-30 01:24:01+00:00,200.0,2.38,202.0,2.59,12.41,47.59359,-54.27349
2022-05-30 01:34:01+00:00,167.0,2.57,167.0,2.8,12.41,47.59359,-54.27349
2022-05-30 01:44:01+00:00,158.0,2.06,142.0,2.53,12.41,47.59359,-54.27349
2022-05-30 01:54:01+00:00,185.0,2.4,187.0,2.62,12.41,47.59359,-54.27349
2022-05-30 02:04:01+00:00,141.0,1.89,142.0,2.16,12.41,47.59359,-54.27349
2022-05-30 02:14:00+00:00,169.0,1.15,173.0,1.29,12.25,47.59359,-54.27349
2022-05-30 02:24:00+00:00,137.0,1.96,137.0,2.24,12.25,47.59359,-54.27349
2022-05-30 02:34:00+00:00,190.0,1.4,196.0,1.61,12.25,47.59359,-54.27349
2022-05-30 02:44:00+00:00,161.0,1.25,162.0,1.35,12.25,47.59359,-54.27349
2022-05-30 02:54:00+00:00,193.0,0.67,196.0,0.77,12.25,47.59359,-54.27349
2022-05-30 03:04:00+00:00,166.0,0.83,164.0,0.89,12.25,47.59359,-54.27349
2022-05-30 03:14:00+00:00,225.0,1.29,223.0,1.43,12.25,47.59359,-54.27349
2022-05-30 03:24:00+00:00,239.0,1.98,236.0,2.1,12.25,47.59359,-54.27349
2022-05-30 03:34:00+00:00,258.0,1.65,255.0,1.75,12.25,47.59359,-54.27349
2022-05-30 03:44:00+00:00,270.0,2.23,270.0,2.31,12.25,47.59359,-54.27349
2022-05-30 03:54:00+00:00,238.0,1.0,256.0,1.41,12.25,47.59359,-54.27349
2022-05-30 04:04:00+00:00,245.0,1.61,247.0,1.71,12.25,47.59359,-54.27349
2022-05-30 04:14:00+00:00,170.0,0.72,165.0,1.06,12.33,47.59359,-54.27349
2022-05-30 04:24:00+00:00,3.0,0.18,15.0,0.4,12.33,47.59359,-54.27349
2022-05-30 04:34:00+00:00,352.0,0.64,0.0,0.79,12.33,47.59359,-54.27349
2022-05-30 04:44:00+00:00,61.0,0.54,56.0,0.68,12.33,47.59359,-54.27349
2022-05-30 04:54:00+00:00,129.0,0.14,102.0,0.27,12.33,47.59359,-54.27349
2022-05-30 05:04:00+00:00,164.0,1.48,163.0,1.58,12.33,47.59359,-54.27349
2022-05-30 05:14:00+00:00,175.0,1.83,180.0,2.06,12.33,47.59359,-54.27349
2022-05-30 05:24:00+00:00,150.0,1.83,146.0,1.98,12.33,47.59359,-54.27349
2022-05-30 05:34:00+00:00,183.0,1.29,183.0,1.41,12.33,47.59359,-54.27349
2022-05-30 05:44:00+00:00,225.0,2.65,225.0,2.78,12.33,47.59359,-54.27349
2022-05-30 05:54:00+00:00,250.0,2.24,250.0,2.4,12.33,47.59359,-54.27349
2022-05-30 06:04:00+00:00,243.0,1.82,247.0,2.06,12.33,47.59359,-54.27349
2022-05-30 06:14:00+00:00,222.0,0.39,221.0,0.63,12.25,47.59359,-54.27349
2022-05-30 06:24:00+00:00,227.0,1.55,226.0,1.81,12.25,47.59359,-54.27349
2022-05-30 06:34:00+00:00,281.0,2.32,283.0,2.44,12.25,47.59359,-54.27349
2022-05-30 06:44:00+00:00,273.0,1.45,270.0,1.57,12.25,47.59359,-54.27349
2022-05-30 06:54:00+00:00,236.0,0.64,243.0,1.18,12.25,47.59359,-54.27349
2022-05-30 07:04:00+00:00,269.0,1.19,265.0,1.47,12.25,47.59359,-54.27349
2022-05-30 07:14:01+00:00,251.0,2.44,251.0,2.55,12.25,47.59359,-54.27349
2022-05-30 07:24:01+00:00,203.0,1.68,212.0,1.85,12.25,47.59359,-54.27349
2022-05-30 07:34:01+00:00,243.0,1.97,252.0,2.39,12.25,47.59359,-54.27349
2022-05-30 07:44:01+00:00,180.0,1.45,181.0,1.72,12.25,47.59359,-54.27349
2022-05-30 07:54:01+00:00,221.0,1.31,219.0,1.39,12.25,47.59359,-54.27349
2022-05-30 08:04:01+00:00,221.0,1.89,223.0,2.05,12.25,47.59359,-54.27349
2022-05-30 08:14:00+00:00,229.0,1.55,227.0,1.66,12.33,47.59359,-54.27349
2022-05-30 08:24:00+00:00,187.0,1.79,191.0,1.92,12.33,47.59359,-54.27349
2022-05-30 08:34:00+00:00,168.0,1.88,168.0,2.03,12.33,47.59359,-54.27349
2022-05-30 08:44:00+00:00,177.0,2.02,179.0,2.12,12.33,47.59359,-54.27349
2022-05-30 08:54:00+00:00,170.0,1.8,166.0,2.02,12.33,47.59359,-54.27349
2022-05-30 09:04:00+00:00,241.0,2.74,252.0,4.32,12.33,47.59359,-54.27349
2022-05-30 09:14:01+00:00,261.0,3.04,262.0,5.14,12.73,47.59359,-54.27349
2022-05-30 09:24:01+00:00,256.0,1.34,264.0,3.17,12.73,47.59359,-54.27349
2022-05-30 09:34:01+00:00,210.0,1.3,212.0,1.47,12.73,47.59359,-54.27349
2022-05-30 09:44:01+00:00,183.0,2.14,184.0,2.22,12.73,47.59359,-54.27349
2022-05-30 09:54:01+00:00,188.0,1.17,192.0,1.37,12.73,47.59359,-54.27349
2022-05-30 10:04:01+00:00,159.0,0.34,156.0,0.48,12.73,47.59359,-54.27349
2022-05-30 10:14:01+00:00,172.0,0.87,176.0,1.03,13.37,47.59359,-54.27349
2022-05-30 10:24:01+00:00,160.0,1.19,162.0,1.27,13.37,47.59359,-54.27349
2022-05-30 10:34:01+00:00,150.0,1.56,157.0,1.71,13.37,47.59359,-54.27349
2022-05-30 10:44:01+00:00,165.0,2.35,165.0,2.43,13.37,47.59359,-54.27349
2022-05-30 10:54:01+00:00,168.0,1.19,180.0,1.42,13.37,47.59359,-54.27349
2022-05-30 11:04:01+00:00,226.0,0.95,241.0,1.46,13.37,47.59359,-54.27349
2022-05-30 11:14:00+00:00,337.0,0.28,321.0,0.4,13.44,47.59359,-54.27349
2022-05-30 11:24:00+00:00,319.0,0.92,324.0,1.09,13.44,47.59359,-54.27349
2022-05-30 11:34:00+00:00,329.0,1.18,330.0,1.3,13.44,47.59359,-54.27349
2022-05-30 11:44:00+00:00,333.0,0.79,341.0,0.87,13.44,47.59359,-54.27349
2022-05-30 11:54:00+00:00,309.0,0.49,306.0,0.59,13.44,47.59359,-54.27349
2022-05-30 12:04:00+00:00,206.0,0.61,206.0,0.66,13.44,47.59359,-54.27349
2022-05-30 12:14:01+00:00,177.0,0.96,168.0,1.46,13.6,47.59359,-54.27349
2022-05-30 12:24:01+00:00,176.0,1.54,173.0,1.87,13.6,47.59359,-54.27349
2022-05-30 12:34:01+00:00,221.0,5.3,228.0,6.32,13.6,47.59359,-54.27349
2022-05-30 12:44:01+00:00,234.0,6.54,238.0,7.63,13.6,47.59359,-54.27349
2022-05-30 12:54:01+00:00,224.0,5.53,235.0,7.02,13.6,47.59359,-54.27349
2022-05-30 13:04:01+00:00,227.0,7.48,227.0,8.04,13.6,47.59359,-54.27349
2022-05-30 13:14:00+00:00,223.0,8.19,225.0,8.85,14.08,47.59359,-54.27349
2022-05-30 13:24:00+00:00,213.0,6.71,213.0,6.99,14.08,47.59359,-54.27349
2022-05-30 13:34:00+00:00,210.0,7.27,219.0,8.33,14.08,47.59359,-54.27349
2022-05-30 13:44:00+00:00,218.0,7.61,224.0,8.8,14.08,47.59359,-54.27349
2022-05-30 13:54:00+00:00,220.0,8.48,220.0,9.49,14.08,47.59359,-54.27349
2022-05-30 14:04:00+00:00,208.0,8.74,209.0,9.86,14.08,47.59359,-54.27349
2022-05-30 14:14:01+00:00,207.0,8.79,215.0,9.93,14.4,47.59359,-54.27349
2022-05-30 14:24:01+00:00,205.0,9.34,205.0,10.21,14.4,47.59359,-54.27349
2022-05-30 14:34:01+00:00,205.0,10.21,206.0,11.74,14.4,47.59359,-54.27349
2022-05-30 14:44:01+00:00,207.0,10.15,207.0,11.24,14.4,47.59359,-54.27349
2022-05-30 14:54:01+00:00,205.0,9.2,209.0,10.11,14.4,47.59359,-54.27349
2022-05-30 15:04:01+00:00,206.0,8.81,201.0,9.72,14.4,47.59359,-54.27349
2022-05-30 15:14:00+00:00,212.0,10.09,214.0,11.39,14.4,47.59359,-54.27349
2022-05-30 15:24:00+00:00,211.0,10.0,211.0,11.12,14.4,47.59359,-54.27349
2022-05-30 15:34:00+00:00,208.0,9.49,212.0,10.52,14.4,47.59359,-54.27349
2022-05-30 15:44:00+00:00,209.0,10.26,212.0,11.22,14.4,47.59359,-54.27349
2022-05-30 15:54:00+00:00,207.0,9.72,211.0,11.11,14.4,47.59359,-54.27349
2022-05-30 16:04:00+00:00,215.0,10.12,214.0,11.92,14.4,47.59359,-54.27349
2022-05-30 16:14:00+00:00,212.0,10.28,215.0,11.51,14.32,47.59359,-54.27349
2022-05-30 16:24:00+00:00,208.0,10.42,212.0,11.72,14.32,47.59359,-54.27349
2022-05-30 16:34:00+00:00,214.0,9.31,214.0,10.44,14.32,47.59359,-54.27349
2022-05-30 16:44:00+00:00,208.0,10.09,211.0,11.17,14.32,47.59359,-54.27349
2022-05-30 16:54:00+00:00,209.0,10.06,208.0,11.33,14.32,47.59359,-54.27349
2022-05-30 17:04:00+00:00,206.0,9.82,204.0,11.02,14.32,47.59359,-54.27349
2022-05-30 17:14:01+00:00,208.0,10.4,207.0,11.34,14.24,47.59359,-54.27349
2022-05-30 17:24:01+00:00,217.0,10.06,219.0,11.34,14.24,47.59359,-54.27349
2022-05-30 17:34:01+00:00,209.0,10.82,209.0,12.55,14.24,47.59359,-54.27349
2022-05-30 17:44:01+00:00,210.0,11.43,209.0,12.94,14.24,47.59359,-54.27349
2022-05-30 17:54:01+00:00,207.0,10.76,206.0,12.14,14.24,47.59359,-54.27349
2022-05-30 18:04:01+00:00,210.0,9.82,210.0,10.89,14.24,47.59359,-54.27349
2022-05-30 18:14:00+00:00,208.0,8.54,205.0,9.48,13.68,47.59359,-54.27349
2022-05-30 18:24:00+00:00,213.0,6.48,214.0,7.23,13.68,47.59359,-54.27349
2022-05-30 18:34:00+00:00,206.0,7.27,210.0,7.95,13.68,47.59359,-54.27349
2022-05-30 18:44:00+00:00,205.0,8.07,209.0,9.11,13.68,47.59359,-54.27349
2022-05-30 18:54:00+00:00,200.0,9.03,194.0,11.45,13.68,47.59359,-54.27349
2022-05-30 19:04:00+00:00,202.0,8.9,200.0,10.08,13.68,47.59359,-54.27349
2022-05-30 19:14:00+00:00,209.0,8.96,211.0,10.03,13.68,47.59359,-54.27349
2022-05-30 19:24:00+00:00,219.0,8.51,233.0,11.3,13.68,47.59359,-54.27349
2022-05-30 19:34:00+00:00,216.0,7.73,215.0,8.29,13.68,47.59359,-54.27349
2022-05-30 19:44:00+00:00,223.0,7.76,239.0,11.0,13.68,47.59359,-54.27349
2022-05-30 19:54:00+00:00,214.0,6.23,214.0,6.74,13.68,47.59359,-54.27349
2022-05-30 20:04:00+00:00,220.0,7.68,232.0,10.3,13.68,47.59359,-54.27349
2022-05-30 20:14:01+00:00,222.0,6.62,239.0,9.15,13.68,47.59359,-54.27349
2022-05-30 20:24:01+00:00,219.0,4.85,220.0,5.57,13.68,47.59359,-54.27349
2022-05-30 20:34:01+00:00,252.0,4.12,250.0,4.62,13.68,47.59359,-54.27349
2022-05-30 20:44:01+00:00,242.0,4.07,239.0,4.6,13.68,47.59359,-54.27349
2022-05-30 20:54:01+00:00,259.0,3.43,266.0,4.46,13.68,47.59359,-54.27349
2022-05-30 21:04:01+00:00,219.0,2.6,236.0,3.45,13.68,47.59359,-54.27349
2022-05-30 21:14:01+00:00,254.0,2.44,253.0,2.89,13.44,47.59359,-54.27349
2022-05-30 21:24:01+00:00,166.0,3.63,168.0,4.15,13.44,47.59359,-54.27349
2022-05-30 21:34:01+00:00,189.0,4.35,192.0,4.6,13.44,47.59359,-54.27349
2022-05-30 21:44:01+00:00,195.0,4.72,198.0,4.91,13.44,47.59359,-54.27349
2022-05-30 21:54:01+00:00,189.0,4.42,190.0,4.68,13.44,47.59359,-54.27349
2022-05-30 22:04:01+00:00,193.0,4.86,194.0,4.91,13.44,47.59359,-54.27349
2022-05-30 22:14:00+00:00,197.0,5.14,198.0,5.25,13.53,47.59359,-54.27349
2022-05-30 22:24:00+00:00,203.0,5.53,206.0,6.23,13.53,47.59359,-54.27349
2022-05-30 22:34:00+00:00,207.0,5.89,208.0,6.19,13.53,47.59359,-54.27349
2022-05-30 22:44:00+00:00,205.0,5.69,207.0,5.95,13.53,47.59359,-54.27349
2022-05-30 22:54:00+00:00,209.0,6.28,210.0,6.62,13.53,47.59359,-54.27349
2022-05-30 23:04:00+00:00,214.0,6.9,215.0,7.22,13.53,47.59359,-54.27349
2022-05-30 23:14:01+00:00,216.0,5.96,217.0,6.26,13.13,47.59359,-54.27349
2022-05-30 23:24:01+00:00,205.0,4.67,206.0,5.07,13.13,47.59359,-54.27349
2022-05-30 23:34:01+00:00,217.0,5.89,215.0,6.51,13.13,47.59359,-54.27349
2022-05-30 23:44:01+00:00,211.0,7.19,209.0,8.07,13.13,47.59359,-54.27349
2022-05-30 23:54:01+00:00,208.0,6.96,209.0,7.57,13.13,47.59359,-54.27349
